"Pseudo-MPEC" for MP95354

Created 2026 Aug 14 13:35:04 UT using Find_Orb

Click here for an explanation of pseudo-MPECs

 
 Astrometry: 
     MP95354 0C2026 07 24.49639022 44 15.894+00 04 31.86   ~8E15 22.08GVNEOCPF51
     MP95354 0C2026 07 24.50827922 44 16.626+00 04 38.57   ~8E15 21.15GVNEOCPF51
     MP95354 0C2026 07 24.52016622 44 17.276+00 04 45.88   ~8E15 22.26GVNEOCPF51
     MP95354 0C2026 07 24.53226422 44 18.023+00 04 53.05   ~8E15 23.45GVNEOCPF51
     MP95354* C2026 08 06.74250022 57 51.201+02 06 28.66   ~8BFK 22.20gWNEOCPO18
     MP95354  C2026 08 06.81076422 57 54.730+02 07 02.68   ~8BFK 21.79rWNEOCPO18
     MP95354  C2026 08 09.82873823 00 44.836+02 31 14.41   ~8BFK 21.98gWNEOCPO18
     MP95354  C2026 08 09.88935223 00 47.827+02 31 42.69   ~8BFK 21.57rWNEOCPO18
     MP95354  C2026 08 10.74218823 01 35.828+02 38 13.98   ~8BFK 22.25gWNEOCPO18
     MP95354  C2026 08 10.84402823 01 40.761+02 38 59.86   ~8BFK 21.37rWNEOCPO18
     MP95354  C2026 08 11.74134323 02 30.435+02 45 40.75   ~8C9Z 21.28rWNEOCPO18
     MP95354  C2026 08 11.84317123 02 35.292+02 46 25.83   ~8C9Z 21.82gWNEOCPO18
     MP95354 KC2026 08 14.23752923 04 44.53 +03 03 21.7    ~8E6Z 21.4 GVNEOCPH21
     MP95354 KC2026 08 14.24312023 04 44.79 +03 03 24.1    ~8E6Z 21.3 GVNEOCPH21

Station data:
(F51) Pan-STARRS 1, Haleakala  (N20.707234 W156.255910)  US/Hawaii.
   Observers J. Herman, T. Lowe, P. Minguez, A. Schultz, I. Smith. Measurers
   K. Chambers, T. de Boer, J. Fairlamb, H. Gao, M. Huber, C.-C. Lin, E.
   Magnier, Y. Ramanjooloo, R. Wainscoat, R. Weryk. 1.8-m Ritchey-Chrétien +
   CCD.
(H21) Astronomical Research Observatory, Westfield  (N39.483054 W87.968270)
   US/Illinois.  Observer R. Holmes. Measurers S. Foglia, L. Buzzi, T.
   Linder, R. Holmes. 0.40-m f/5.32 astrograph + CCD.
(O18) WFST, Lenghu  (N38.607601 E93.895220)  China.  Observers K. Yan, Z. Q.
   Li, J. Z. Zhu, N. Jiang, Z. Y. Liu. Measurers B. Li, H. B. Zhao, Z. J. Xu,
   G. T. Zhaori. 2.5-m f/2.48 reflector + CCD.

Orbital elements:  MP95354
   Perihelion 2026 Oct 21.329410 +/- 0.185 TT =  7:54:21.0 (JD 2461334.829410)
Epoch 2026 Aug 14.0 TT = JDT 2461266.5   Earth MOID: 0.2108   Ma: 0.0996
M 338.829701976 +/- 0.24            (J2000 ecliptic)             AutoNEOCP
n   0.309827028 +/- 0.00278         Peri.  186.811744 +/- 0.38
a   2.162999974 +/- 0.0129          Node   197.099682 +/- 0.16
e   0.44166703 +/- 0.00223          Incl.    3.282859 +/- 0.0039
P   3.18115                H 21.66  G  0.15   U  8.8
q 1.207674198 +/- 0.00242    Q 3.118325750 +/- 0.0235
From 14 observations 2026 July 24-Aug. 14; mean residual 0".17
Residuals in arcseconds: 
260724 F51  .11+  .18+    260806 O18  .15+  .06-    260811 O18  .03-  .11+    
260724 F51  .43+  .19-    260809 O18  .06-  .28-    260811 O18  .14-  .26+    
260724 F51  .46-  .03+    260809 O18  .04+  .04-    260814 H21  .03+  .12-    
260724 F51  .07-  .01-    260810 O18  .07+  .26+    260814 H21  .00   .02-    
260806 O18  .09-  .03-    260810 O18  .05+  .04-    

Ephemerides (geocentric):
Date (UTC) HH   RA             Dec           delta  r     elong  mag " sig PA
---- --------  ------------   ------------  ------ ------ -----  --- --------
2026 08 14 14  23 05 02.362   +03 05 55.11  .41037 1.3881 151.7 21.4 .221 157
2026 08 14 15  23 05 04.566   +03 06 11.95  .41009 1.3879 151.8 21.4 .226 157
2026 08 14 16  23 05 06.769   +03 06 28.77  .40982 1.3877 151.8 21.4 .232 156
2026 08 14 17  23 05 08.971   +03 06 45.56  .40954 1.3875 151.8 21.4 .237 156
2026 08 14 18  23 05 11.172   +03 07 02.33  .40927 1.3873 151.8 21.4 .243 155
2026 08 14 19  23 05 13.372   +03 07 19.08  .40899 1.3871 151.9 21.4 .248 155
2026 08 14 20  23 05 15.572   +03 07 35.80  .40872 1.3869 151.9 21.4 .253 155
2026 08 14 21  23 05 17.771   +03 07 52.50  .40845 1.3867 151.9 21.4 .259 154
2026 08 14 22  23 05 19.969   +03 08 09.18  .40817 1.3865 152.0 21.4 .265 154
2026 08 14 23  23 05 22.166   +03 08 25.83  .40790 1.3863 152.0 21.4 .270 153
2026 08 15 00  23 05 24.362   +03 08 42.46  .40763 1.3861 152.0 21.4 .276 153
2026 08 15 01  23 05 26.558   +03 08 59.06  .40735 1.3859 152.0 21.4 .282 153
2026 08 15 02  23 05 28.752   +03 09 15.64  .40708 1.3857 152.1 21.4 .288 152
2026 08 15 03  23 05 30.946   +03 09 32.20  .40681 1.3855 152.1 21.4 .294 152
2026 08 15 04  23 05 33.140   +03 09 48.73  .40654 1.3853 152.1 21.4 .300 152
2026 08 15 05  23 05 35.332   +03 10 05.24  .40626 1.3851 152.1 21.4 .306 151
2026 08 15 06  23 05 37.524   +03 10 21.73  .40599 1.3849 152.2 21.4 .312 151
2026 08 15 07  23 05 39.714   +03 10 38.19  .40572 1.3847 152.2 21.4 .318 151
2026 08 15 08  23 05 41.904   +03 10 54.63  .40545 1.3845 152.2 21.4 .324 151
2026 08 15 09  23 05 44.094   +03 11 11.04  .40518 1.3843 152.3 21.4 .330 150
2026 08 15 10  23 05 46.282   +03 11 27.43  .40491 1.3842 152.3 21.4 .336 150
2026 08 15 11  23 05 48.470   +03 11 43.80  .40464 1.3840 152.3 21.4 .343 150
2026 08 15 12  23 05 50.657   +03 12 00.14  .40437 1.3838 152.3 21.4 .349 149
2026 08 15 13  23 05 52.843   +03 12 16.46  .40409 1.3836 152.4 21.4 .355 149
2026 08 15 14  23 05 55.028   +03 12 32.75  .40382 1.3834 152.4 21.4 .362 149
2026 08 15 15  23 05 57.213   +03 12 49.02  .40355 1.3832 152.4 21.4 .368 149
2026 08 15 16  23 05 59.397   +03 13 05.27  .40328 1.3830 152.5 21.4 .375 148
2026 08 15 17  23 06 01.580   +03 13 21.49  .40301 1.3828 152.5 21.4 .382 148
2026 08 15 18  23 06 03.763   +03 13 37.69  .40275 1.3826 152.5 21.4 .388 148
2026 08 15 19  23 06 05.944   +03 13 53.86  .40248 1.3824 152.5 21.4 .395 148
2026 08 15 20  23 06 08.125   +03 14 10.01  .40221 1.3822 152.6 21.4 .402 147
2026 08 15 21  23 06 10.305   +03 14 26.14  .40194 1.3820 152.6 21.4 .409 147
2026 08 15 22  23 06 12.485   +03 14 42.24  .40167 1.3818 152.6 21.4 .416 147
2026 08 15 23  23 06 14.663   +03 14 58.32  .40140 1.3816 152.7 21.4 .422 147
2026 08 16 00  23 06 16.841   +03 15 14.37  .40113 1.3814 152.7 21.4 .430 146
2026 08 16 01  23 06 19.018   +03 15 30.40  .40086 1.3812 152.7 21.4 .437 146
2026 08 16 02  23 06 21.195   +03 15 46.40  .40060 1.3810 152.7 21.4 .444 146
2026 08 16 03  23 06 23.370   +03 16 02.38  .40033 1.3808 152.8 21.4 .451 146
2026 08 16 04  23 06 25.545   +03 16 18.34  .40006 1.3807 152.8 21.4 .458 146
2026 08 16 05  23 06 27.720   +03 16 34.27  .39980 1.3805 152.8 21.4 .466 145
2026 08 16 06  23 06 29.893   +03 16 50.18  .39953 1.3803 152.9 21.4 .473 145
2026 08 16 07  23 06 32.066   +03 17 06.06  .39926 1.3801 152.9 21.4 .480 145
2026 08 16 08  23 06 34.238   +03 17 21.92  .39899 1.3799 152.9 21.3 .488 145
2026 08 16 09  23 06 36.409   +03 17 37.75  .39873 1.3797 152.9 21.3 .495 144
2026 08 16 10  23 06 38.580   +03 17 53.56  .39846 1.3795 153.0 21.3 .503 144
2026 08 16 11  23 06 40.750   +03 18 09.34  .39820 1.3793 153.0 21.3 .511 144
2026 08 16 12  23 06 42.919   +03 18 25.10  .39793 1.3791 153.0 21.3 .518 144
2026 08 16 13  23 06 45.088   +03 18 40.84  .39767 1.3789 153.1 21.3 .526 144